This is the latest recevied weather packets stored in our database for station/object WP4PW. If no packets are shown the sender has not sent any weather packets the latest 10 day(s).
| Time | Temp. | Humidity | Pressure | Rain* | Wind** | Luminosity | Snow |
|---|---|---|---|---|---|---|---|
| 1777382040 | 28.33° C | 88% | 1020.7 hPa | 0 mm | - | 191 W/m² | - |
| 1777381735 | 28.33° C | 89% | 1020.8 hPa | 0 mm | - | 161 W/m² | - |
| 1777380824 | 27.78° C | 90% | 1020.9 hPa | 0 mm | - | 134 W/m² | - |
| 1777378093 | 26.67° C | 92% | 1020.4 hPa | 0 mm | - | 133 W/m² | - |
| 1777377788 | 27.22° C | 91% | 1020.3 hPa | 0 mm | - | 109 W/m² | - |
| 1777377488 | 27.22° C | 91% | 1020.2 hPa | 0 mm | - | 103 W/m² | - |
| 1777376275 | 26.67° C | 93% | 1020.2 hPa | 0 mm | - | 84 W/m² | - |
| 1777375969 | 26.11° C | 93% | 1020.2 hPa | 0 mm | - | 66 W/m² | - |
| 1777375664 | 26.11° C | 93% | 1020.2 hPa | 0 mm | - | 68 W/m² | - |
| 1777375358 | 26.11° C | 93% | 1020.2 hPa | 0 mm | - | 72 W/m² | - |
| 1777375056 | 26.11° C | 93% | 1020.1 hPa | 0 mm | - | 75 W/m² | - |
| 1777374751 | 26.11° C | 94% | 1020.1 hPa | 0 mm | - | 97 W/m² | - |
| 1777374146 | 25.56° C | 95% | 1020 hPa | 0 mm | - | 75 W/m² | - |
| 1777372629 | 25° C | 96% | 1019.9 hPa | 0 mm | - | 14 W/m² | - |
| 1777372329 | 25° C | 96% | 1019.8 hPa | 0 mm | - | 15 W/m² | - |
| 1777372027 | 25° C | 96% | 1019.6 hPa | 0 mm | - | 17 W/m² | - |
| 1777371723 | 25° C | 96% | 1019.6 hPa | 0 mm | - | 14 W/m² | - |
| 1777371420 | 25° C | 96% | 1019.5 hPa | 0 mm | - | 10 W/m² | - |
| 1777371117 | 25° C | 96% | 1019.4 hPa | 0 mm | - | 7 W/m² | - |
| 1777370813 | 25° C | 96% | 1019.3 hPa | 0 mm | - | 4 W/m² | - |
| 1777370509 | 25° C | 96% | 1019.4 hPa | 0 mm | - | 2 W/m² | - |
| 1777370204 | 25° C | 96% | 1019.2 hPa | 0 mm | - | 2 W/m² | - |
| 1777369901 | 25° C | 96% | 1019.2 hPa | 0 mm | - | 1 W/m² | - |
| 1777368992 | 25° C | 96% | 1019.2 hPa | 0 mm | - | 0 W/m² | - |
| 1777368686 | 25° C | 96% | 1019 hPa | 0 mm | - | 0 W/m² | - |
* Rain latest hour (hover to see other rain measurements)
** Current wind speed in m/s (hover to see current wind gust speed)